Location: Canazei
(46.4667°N, 11.7667°E)
Time: 06:56:09
(UTC+00:00)

SJ 16-02 - Pass Details

Date: 21 April 2021
Orbit: 605 x 617 km, 75.0° (Epoch: 15 May)

Event Time Altitude Azimuth Distance (km) Brightness Sun altitude
Exits shadow 02:02:04 20° 293° (WNW) 1,431 3.0 -20.3°
Maximum altitude 02:02:37 21° 304° (WNW) 1,414 3.1 -20.2°
Drops below altitude 10° 02:05:58 10° 353° (N) 1,989 4.4 -19.8°
Sets 02:08:43 0° 10° (N) 2,900 5.7 -19.5°
